Weather in Toledo

Spain     39°51′47″N   4°01′26″W
temp.,
°C
wind,
m/s
gust,
m/s
humid.,
%
clouds,
%
prec.,
mm/h
press.,
hPa
HPBL,
m
26 july, mon
mon2623:00+24wnw583495 0.0 1011414
02:00+20nw335321 0.1 101222
05:00+19nw2251100 0.1 101246
08:00+20wnw2249100 0.1 1013105
11:00+23ne44460 0.0 10141043
14:00+26n33340 0.0 10131959
17:00+28n22280 0.0 10132192
20:00+28nne11250 0.0 10121703
27 july, tue
tue2723:00+23e22342 0.0 101411
02:00+22s33350 0.0 101411
05:00+20se22450 0.0 101311
08:00+21ssw224113 0.0 101411
11:00+27wsw23280 0.0 10131043
14:00+32wsw55200 0.0 10122765
17:00+34wsw66170 0.0 10093039
20:00+33wsw55180 0.0 10083097
28 july, wed
wed2823:00+27wsw55260 0.0 101055
02:00+25wsw33290 0.0 101013
05:00+22wnw22330 0.0 101011
08:00+22ese22350 0.0 101111
11:00+30wsw24220 0.0 10111125
14:00+34wsw56180 0.0 10102601
17:00+36wsw67130 0.0 10093038
20:00+35wsw77130 0.0 10092071
29 july, thu
thu2923:00+28w44180 0.0 101025
02:00+25wsw33240 0.0 101112
05:00+23sw22280 0.0 101111
08:00+23ssw11320 0.0 101211
11:00+30w13210 0.0 10121039
14:00+34wsw78160 0.0 10112504
17:00+36wsw89140 0.0 10093046
20:00+34w99150 0.0 10092341
30 july, fri
fri3023:00+26wsw57190 0.0 101177
02:00+24wsw45230 0.0 101238
05:00+21sw33290 0.0 101212
08:00+20wsw22360 0.0 101314
11:00+26w45190 0.0 1014739
14:00+31wnw68150 0.0 10121738
17:00+34wnw810130 0.0 10102574
20:00+32wnw910140 0.0 10102206